This is the latest recevied weather packets stored in our database for station/object N7SHZ. If no packets are shown the sender has not sent any weather packets the latest 1 day(s).
| Time | Temp. | Humidity | Pressure | Rain* | Wind** | Luminosity | Snow |
|---|---|---|---|---|---|---|---|
| 1778096455 | -3.33° C | 98% | 1036.3 hPa | - | - | 739 W/m² | - |
| 1778095547 | -2.22° C | 99% | 1036.5 hPa | - | - | 738 W/m² | - |
| 1778094333 | -3.33° C | 99% | 1036.5 hPa | - | - | 725 W/m² | - |
| 1778094030 | -2.78° C | 99% | 1036.5 hPa | - | - | 726 W/m² | - |
| 1778093727 | -2.78° C | 99% | 1036.6 hPa | - | - | 867 W/m² | - |
| 1778093121 | -3.33° C | 98% | 1036.6 hPa | - | - | 720 W/m² | - |
| 1778090393 | -3.33° C | 99% | 1035.9 hPa | - | - | 743 W/m² | - |
| 1778089180 | -3.89° C | 98% | 1035.9 hPa | - | - | 444 W/m² | - |
| 1778088878 | -3.33° C | 98% | 1035.8 hPa | - | - | 591 W/m² | - |
| 1778088272 | -3.33° C | 99% | 1035.5 hPa | - | - | 653 W/m² | - |
| 1778087666 | -3.89° C | 99% | 1035.5 hPa | - | - | 624 W/m² | - |
| 1778083424 | -3.33° C | 99% | 1034.7 hPa | - | - | 609 W/m² | - |
| 1778081085 | -3.89° C | 99% | 1034.5 hPa | - | - | 325 W/m² | - |
| 1778080178 | -3.33° C | 99% | 1034.1 hPa | - | - | 353 W/m² | - |
| 1778079571 | -3.33° C | 99% | 1034.1 hPa | - | - | 221 W/m² | - |
| 1778079267 | -3.33° C | 99% | 1033.9 hPa | - | - | 178 W/m² | - |
| 1778078965 | -3.89° C | 99% | 1033.8 hPa | - | - | 183 W/m² | - |
| 1778078661 | -4.44° C | 99% | 1033.5 hPa | - | - | 210 W/m² | - |
| 1778076848 | -6.11° C | 98% | 1033.5 hPa | - | - | 95 W/m² | - |
| 1778076546 | -6.11° C | 98% | 1033.5 hPa | - | - | 100 W/m² | - |
| 1778075636 | -6.67° C | 97% | 1033.3 hPa | - | - | 100 W/m² | - |
| 1778075029 | -6.67° C | 97% | 1033.1 hPa | - | - | 49 W/m² | - |
| 1778072908 | -6.67° C | 97% | 1033 hPa | - | - | 27 W/m² | - |
| 1778072302 | -6.67° C | 97% | 1032.3 hPa | - | - | 25 W/m² | - |
| 1778071395 | -6.67° C | 97% | 1032.2 hPa | - | - | 14 W/m² | - |
* Rain since midnight (hover to see other rain measurements)
** Current wind speed in m/s (hover to see current wind gust speed)